Sturgeon Bay, WI

9:10 AM CDT on October 21, 2019 (GMT -0500)
Door County Cherryland

Weather History for KSUE - August, 2019

Change the Weather History Date:

Wednesday, August 21, 2019

  Actual Average Record
Temperature  
Mean Temperature 69 °F -  
Max Temperature 75 °F 76 °F 102 °F (1955)
Min Temperature 62 °F 55 °F 39 °F (1907)
Cooling Degree Days 4    
Growing Degree Days 19 (Base 50)    
Moisture  
Dew Point 60 °F    
Average Humidity 75    
Maximum Humidity 96    
Minimum Humidity 48    
Precipitation  
Precipitation 0.00 in - - ()
Sea Level Pressure  
Sea Level Pressure 29.94 in    
Wind  
Wind Speed 7 mph (NNW)    
Max Wind Speed 13 mph    
Max Gust Speed -    
Visibility 10 miles    
Events      
Averages and records for this station are not official NWS values.
T = Trace of Precipitation, MM = Missing Value Source: NWS Daily Summary

Daily Weather History Graph

Daily Weather History Graph

Search for Another Location

Airport or City:

Astronomy

Aug. 21, 2019 Rise Set
Actual Time 5:58 AM CDT 7:46 PM CDT
Civil Twilight 5:27 AM CDT 8:17 PM CDT
Nautical Twilight 4:49 AM CDT 8:55 PM CDT
Astronomical Twilight 4:07 AM CDT 9:36 PM CDT
Moon 10:48 PM CDT 11:48 AM CDT
Length of Visible Light 14h 49m
Length of Day
13h 47m
Waning Gibbous, 69% of the Moon is Illuminated
Aug 21
Waning Gibbous
Aug 23
Last Quarter
Aug 30
New
Sep 5
First Quarter
Sep 13
Full

Hourly Weather History & Observations

Time (CDT) Temp. Dew Point Humidity Pressure Visibility Wind Dir Wind Speed Gust Speed Precip Events Conditions
12:56 AM 68.0 °F 66.9 °F 96% 29.91 in 10.0 mi West 4.6 mph - N/A   Clear
1:56 AM 69.1 °F 66.0 °F 90% 29.91 in 10.0 mi WNW 5.8 mph - N/A   Clear
2:56 AM 68.0 °F 64.9 °F 90% 29.91 in 10.0 mi West 4.6 mph - N/A   Clear
3:56 AM 66.9 °F 64.0 °F 90% 29.90 in 10.0 mi NW 4.6 mph - N/A   Clear
4:56 AM 66.0 °F 64.0 °F 93% 29.90 in 10.0 mi North 10.4 mph - N/A   Clear
5:56 AM 66.0 °F 63.0 °F 90% 29.89 in 10.0 mi North 5.8 mph - N/A   Clear
6:56 AM 66.0 °F 64.0 °F 93% 29.89 in 10.0 mi North 8.1 mph - N/A   Clear
7:56 AM 68.0 °F 64.9 °F 90% 29.94 in 10.0 mi NNW 6.9 mph - N/A   Clear
8:09 AM 66.2 °F 64.4 °F 94% 29.95 in 10.0 mi NNW 8.1 mph - N/A   Scattered Clouds
8:56 AM 66.9 °F 64.0 °F 90% 29.94 in 10.0 mi NNW 8.1 mph - N/A   Overcast
9:29 AM 68.0 °F 64.4 °F 88% 29.95 in 10.0 mi North 8.1 mph - N/A   Overcast
9:56 AM 68.0 °F 64.0 °F 87% 29.95 in 10.0 mi NNW 8.1 mph - N/A   Overcast
10:56 AM 69.1 °F 63.0 °F 81% 29.94 in 10.0 mi North 8.1 mph - N/A   Overcast
11:56 AM 71.1 °F 61.0 °F 70% 29.95 in 10.0 mi Variable 4.6 mph - N/A   Mostly Cloudy
12:56 PM 73.0 °F 60.1 °F 64% 29.95 in 10.0 mi WNW 4.6 mph - N/A   Clear
1:56 PM 73.9 °F 59.0 °F 59% 29.94 in 10.0 mi WNW 6.9 mph - N/A   Scattered Clouds
2:56 PM 75.0 °F 55.9 °F 51% 29.92 in 10.0 mi NW 12.7 mph - N/A   Clear
3:56 PM 75.9 °F 55.0 °F 48% 29.93 in 10.0 mi WNW 10.4 mph - N/A   Scattered Clouds
4:56 PM 75.9 °F 57.0 °F 52% 29.95 in 10.0 mi NW 8.1 mph - N/A   Mostly Cloudy
5:56 PM 73.0 °F 55.0 °F 53% 29.94 in 10.0 mi NNW 9.2 mph - N/A   Partly Cloudy
6:56 PM 69.1 °F 55.9 °F 63% 29.94 in 10.0 mi NNW 6.9 mph - N/A   Clear
7:56 PM 68.0 °F 55.0 °F 63% 29.95 in 10.0 mi North 10.4 mph - N/A   Clear
8:56 PM 68.0 °F 50.0 °F 52% 29.97 in 10.0 mi North 12.7 mph - N/A   Overcast
9:56 PM 66.9 °F 51.1 °F 57% 30.00 in 10.0 mi NNE 10.4 mph - N/A   Overcast
10:56 PM 63.0 °F 53.1 °F 70% 30.01 in 8.0 mi NE 6.9 mph - N/A   Overcast
11:56 PM 62.1 °F 53.1 °F 72% 30.02 in 10.0 mi NE 3.5 mph - N/A   Partly Cloudy